Weather History for Fryeburg, ME

Change the Weather History Date:

Wednesday, October 16, 2013

  Actual Average Record
Temperature  
Mean Temperature 52 °F -  
Max Temperature 62 °F 56 °F 68 °F (1999)
Min Temperature 43 °F 31 °F 27 °F (1999)
Degree Days  
Heating Degree Days 12    
Growing Degree Days 2 (Base 50)    
Moisture  
Dew Point 50 °F    
Average Humidity 86    
Maximum Humidity 97    
Minimum Humidity 62    
Precipitation  
Precipitation 0.00 in - - ()
Sea Level Pressure  
Sea Level Pressure 30.08 in    
Wind  
Wind Speed 1 mph (ESE)    
Max Wind Speed 6 mph    
Max Gust Speed -    
Visibility 10 miles    
Events      
Averages and records for this station are not official NWS values.
T = Trace of Precipitation, MM = Missing Value Source: NWS Daily Summary

Daily Weather History Graph

Daily Weather History Graph

Search for Another Location

Airport:

Trip Planner

Search our weather history database for the weather conditions in past years. The results will help you decide how hot, cold, wet, or windy it might be!

Date:

Astronomy

Oct. 16, 2013 Rise Set
Actual Time 6:59 AM EDT 5:57 PM EDT
Civil Twilight 6:30 AM EDT 6:27 PM EDT
Nautical Twilight 5:57 AM EDT 7:00 PM EDT
Astronomical Twilight 5:23 AM EDT 7:33 PM EDT
Moon 4:39 PM EDT (10/16) 4:19 AM EDT (10/16)
Length of Visible Light 11h 56m
Length of Day
10h 58m
Waxing Gibbous, 94% of the Moon is Illuminated
Oct 16
Waxing Gibbous
Oct 18
Full
Oct 26
Last Quarter
Nov 3
New
Nov 10
First Quarter

Hourly Weather History & Observations

Time (EDT) Temp. Windchill Dew Point Humidity Pressure Visibility Wind Dir Wind Speed Gust Speed Precip Events Conditions
12:54 AM 55.9 °F - 51.1 °F 84% 30.19 in 10.0 mi Calm Calm - N/A   Overcast
1:54 AM 54.0 °F - 52.0 °F 93% 30.19 in 10.0 mi Calm Calm - N/A   Overcast
2:54 AM 54.0 °F - 52.0 °F 93% 30.17 in 10.0 mi Calm Calm - N/A   Overcast
3:54 AM 55.0 °F - 52.0 °F 89% 30.17 in 10.0 mi Calm Calm - N/A   Overcast
4:23 AM 55.4 °F - 51.8 °F 88% 30.17 in 10.0 mi Calm Calm - N/A   Overcast
4:54 AM 54.0 °F - 52.0 °F 93% 30.18 in 10.0 mi Calm Calm - N/A   Overcast
5:03 AM 53.6 °F - 51.8 °F 94% 30.17 in 10.0 mi ESE 3.5 mph - N/A   Overcast
5:54 AM 54.0 °F - 51.1 °F 90% 30.17 in 10.0 mi ESE 3.5 mph - N/A   Overcast
6:54 AM 54.0 °F - 51.1 °F 90% 30.17 in 10.0 mi Calm Calm - N/A   Overcast
7:02 AM 53.6 °F - 51.8 °F 94% 30.15 in 10.0 mi Calm Calm - N/A   Overcast
7:54 AM 54.0 °F - 51.1 °F 90% 30.15 in 10.0 mi Calm Calm - N/A   Overcast
8:13 AM 53.6 °F - 51.8 °F 94% 30.15 in 10.0 mi Calm Calm - N/A   Overcast
8:23 AM 53.6 °F - 51.8 °F 94% 30.14 in 10.0 mi Calm Calm - N/A   Overcast
8:33 AM 55.4 °F - 51.8 °F 88% 30.14 in 10.0 mi Calm Calm - N/A   Overcast
8:54 AM 55.0 °F - 51.1 °F 86% 30.14 in 10.0 mi ESE 5.8 mph - N/A   Overcast
9:54 AM 55.9 °F - 50.0 °F 80% 30.14 in 10.0 mi ESE 5.8 mph - N/A   Overcast
10:54 AM 55.9 °F - 51.1 °F 84% 30.12 in 10.0 mi South 4.6 mph - N/A   Overcast
11:54 AM 55.0 °F - 51.1 °F 86% 30.11 in 10.0 mi SSE 5.8 mph - N/A   Overcast
12:54 PM 55.9 °F - 51.1 °F 84% 30.08 in 10.0 mi Calm Calm - N/A   Overcast
1:27 PM 57.2 °F - 51.8 °F 82% 30.06 in 10.0 mi Calm Calm - N/A   Mostly Cloudy
1:40 PM 57.2 °F - 50.0 °F 77% 30.05 in 10.0 mi Calm Calm - N/A   Scattered Clouds
1:54 PM 57.9 °F - 50.0 °F 75% 30.05 in 10.0 mi Calm Calm - N/A   Mostly Cloudy
2:04 PM 57.2 °F - 48.2 °F 72% 30.04 in 10.0 mi Calm Calm - N/A   Scattered Clouds
2:54 PM 60.1 °F - 48.9 °F 67% 30.03 in 10.0 mi Calm Calm - N/A   Clear
3:54 PM 61.0 °F - 48.0 °F 62% 30.01 in 10.0 mi NE 5.8 mph - N/A   Clear
4:54 PM 59.0 °F - 48.9 °F 69% 30.00 in 10.0 mi Calm Calm - N/A   Clear
5:54 PM 55.9 °F - 51.1 °F 84% 29.98 in 10.0 mi Calm Calm - N/A   Clear
6:54 PM 50.0 °F - 48.0 °F 93% 29.98 in 10.0 mi Calm Calm - N/A   Clear
7:54 PM 50.0 °F - 48.0 °F 93% 29.96 in 10.0 mi Calm Calm - N/A   Partly Cloudy
8:54 PM 50.0 °F - 46.9 °F 89% 29.96 in 10.0 mi Calm Calm - N/A   Clear
9:54 PM 46.9 °F - 45.0 °F 93% 29.94 in 9.0 mi Calm Calm - N/A   Clear
10:54 PM 45.0 °F - 43.0 °F 93% 29.93 in 5.0 mi Calm Calm - N/A   Clear
11:36 PM 44.6 °F - 42.8 °F 93% 29.90 in 5.0 mi Calm Calm - N/A   Partly Cloudy
11:54 PM 43.0 °F 41.3 °F 42.1 °F 97% 29.90 in 6.0 mi North 3.5 mph - N/A   Partly Cloudy